DAL4187 KLAX-KMRY

Flight info

Callsign DAL4187
Flight time N/A
Altitude 34000
Route SUMMR2 SCTRR WIGGL
Aircraft B738/M-SDE2E3FGHIRWXY/LB1

Departure

Time 2026-04-22 00:02
Airport Los Angeles International Airport (KLAX)

Arrival

Time N/A
Airport Monterey Regional Airport (KMRY)
Time Latitude Longitude Altitude Speed Heading
2026-04-21 23:18 33.94665 -118.40494 121 ft 0 kts 98°
2026-04-21 23:47 33.94667 -118.40512 121 ft 2 kts 98°
2026-04-21 23:48 33.94669 -118.40528 121 ft 0 kts 98°
2026-04-21 23:48 33.94671 -118.40535 121 ft 0 kts 91°
2026-04-21 23:49 33.94670 -118.40543 121 ft 2 kts 72°
2026-04-21 23:50 33.94662 -118.40559 121 ft 2 kts 42°
2026-04-21 23:50 33.94649 -118.40569 121 ft 2 kts 13°
2026-04-21 23:50 33.94640 -118.40569 121 ft 0 kts 354°
2026-04-21 23:50 33.94633 -118.40568 121 ft 0 kts 352°
2026-04-21 23:54 33.94652 -118.40571 121 ft 5 kts 353°
2026-04-21 23:54 33.94684 -118.40575 121 ft 4 kts 353°
2026-04-21 23:54 33.94700 -118.40578 121 ft 0 kts 353°
2026-04-21 23:55 33.94704 -118.40578 121 ft 1 kts 353°
2026-04-21 23:55 33.94736 -118.40583 121 ft 6 kts 353°
2026-04-21 23:55 33.94775 -118.40590 121 ft 5 kts 350°
2026-04-21 23:55 33.94820 -118.40600 121 ft 6 kts 350°
2026-04-21 23:56 33.94863 -118.40572 121 ft 13 kts 64°
2026-04-21 23:56 33.94884 -118.40409 119 ft 21 kts 84°
2026-04-21 23:56 33.94897 -118.40231 118 ft 20 kts 84°
2026-04-21 23:56 33.94917 -118.40075 116 ft 15 kts 82°
2026-04-21 23:57 33.94933 -118.39959 115 ft 5 kts 72°
2026-04-21 23:57 33.94949 -118.39934 114 ft 0 kts 40°
2026-04-21 23:58 33.94955 -118.39928 114 ft 3 kts 38°
2026-04-21 23:58 33.95027 -118.39939 114 ft 13 kts 313°
2026-04-21 23:58 33.95038 -118.40008 115 ft 3 kts 262°
2026-04-21 23:59 33.95038 -118.40009 115 ft 0 kts 262°
2026-04-21 23:59 33.95038 -118.40011 115 ft 0 kts 262°
2026-04-22 00:00 33.95038 -118.40012 115 ft 0 kts 262°
2026-04-22 00:00 33.95037 -118.40022 115 ft 1 kts 262°
2026-04-22 00:01 33.95018 -118.40172 118 ft 50 kts 262°
2026-04-22 00:01 33.94945 -118.40879 124 ft 116 kts 263°
2026-04-22 00:01 33.94788 -118.42031 153 ft 161 kts 258°
2026-04-22 00:01 33.94723 -118.43422 644 ft 175 kts 271°
2026-04-22 00:02 33.94775 -118.44958 1122 ft 194 kts 271°
2026-04-22 00:02 33.94711 -118.46508 1942 ft 192 kts 258°
2026-04-22 00:02 33.94425 -118.48129 2574 ft 205 kts 261°
2026-04-22 00:02 33.94272 -118.49867 3248 ft 216 kts 266°
2026-04-22 00:03 33.94175 -118.51714 3905 ft 228 kts 266°
2026-04-22 00:03 33.94041 -118.53621 4617 ft 235 kts 264°
2026-04-22 00:03 33.93884 -118.55609 4912 ft 241 kts 264°
2026-04-22 00:03 33.93722 -118.57621 4967 ft 244 kts 264°
2026-04-22 00:04 33.93555 -118.59701 4980 ft 255 kts 264°
2026-04-22 00:04 33.93383 -118.61875 5080 ft 269 kts 264°
2026-04-22 00:04 33.93211 -118.64101 6196 ft 264 kts 264°
2026-04-22 00:04 33.93047 -118.66238 7337 ft 258 kts 263°
2026-04-22 00:05 33.92885 -118.68321 8374 ft 255 kts 262°
2026-04-22 00:05 33.92718 -118.70448 9308 ft 256 kts 262°
2026-04-22 00:05 33.92554 -118.72555 10161 ft 259 kts 262°
2026-04-22 00:05 33.92389 -118.74691 11068 ft 259 kts 262°
2026-04-22 00:06 33.92221 -118.76829 11967 ft 260 kts 262°
2026-04-22 00:06 33.92049 -118.79005 12738 ft 263 kts 262°
2026-04-22 00:06 33.91871 -118.81231 13215 ft 274 kts 262°
2026-04-22 00:06 33.91719 -118.83547 13666 ft 282 kts 265°
2026-04-22 00:07 33.91712 -118.85897 14082 ft 286 kts 268°
2026-04-22 00:07 33.91803 -118.88286 14504 ft 286 kts 270°
2026-04-22 00:07 33.91912 -118.90715 14952 ft 289 kts 270°
2026-04-22 00:07 33.92005 -118.93095 15374 ft 289 kts 269°
2026-04-22 00:08 33.92084 -118.95519 15769 ft 291 kts 269°
2026-04-22 00:08 33.92155 -118.97947 16190 ft 290 kts 269°
2026-04-22 00:08 33.92297 -119.00388 16595 ft 294 kts 274°
2026-04-22 00:08 33.92839 -119.02791 16956 ft 302 kts 288°
2026-04-22 00:09 33.93846 -119.05021 17381 ft 308 kts 294°
2026-04-22 00:09 33.95005 -119.07200 17799 ft 312 kts 296°
2026-04-22 00:09 33.96189 -119.09373 18216 ft 310 kts 295°
2026-04-22 00:09 33.97351 -119.11543 18639 ft 312 kts 295°
2026-04-22 00:10 33.98511 -119.13747 19062 ft 311 kts 295°
2026-04-22 00:10 33.99664 -119.15948 19484 ft 315 kts 295°
2026-04-22 00:10 34.00944 -119.18151 19912 ft 322 kts 301°
2026-04-22 00:10 34.02542 -119.20067 20336 ft 331 kts 311°
2026-04-22 00:11 34.04397 -119.21757 20766 ft 337 kts 315°
2026-04-22 00:11 34.06343 -119.23378 21195 ft 343 kts 316°
2026-04-22 00:11 34.08322 -119.24998 21620 ft 343 kts 316°
2026-04-22 00:11 34.10274 -119.26608 22045 ft 344 kts 315°
2026-04-22 00:12 34.12268 -119.28278 22482 ft 346 kts 315°
2026-04-22 00:12 34.14231 -119.29945 22907 ft 345 kts 315°
2026-04-22 00:12 34.16207 -119.31636 23348 ft 349 kts 314°
2026-04-22 00:12 34.18185 -119.33338 23783 ft 352 kts 315°
2026-04-22 00:13 34.20166 -119.35043 24112 ft 356 kts 315°
2026-04-22 00:13 34.22200 -119.36800 24064 ft 358 kts 314°
2026-04-22 00:13 34.24207 -119.38531 24057 ft 353 kts 314°
2026-04-22 00:13 34.26244 -119.40294 24515 ft 355 kts 314°
2026-04-22 00:14 34.28236 -119.42010 25092 ft 355 kts 314°
2026-04-22 00:14 34.30241 -119.43742 25718 ft 354 kts 314°
2026-04-22 00:14 34.32252 -119.45484 26256 ft 354 kts 314°
2026-04-22 00:14 34.34248 -119.47216 26825 ft 353 kts 314°
2026-04-22 00:15 34.36233 -119.48930 27440 ft 350 kts 313°
2026-04-22 00:15 34.38216 -119.50645 27899 ft 351 kts 313°
2026-04-22 00:15 34.40181 -119.52354 28433 ft 349 kts 313°
2026-04-22 00:15 34.42155 -119.54093 28960 ft 346 kts 311°
2026-04-22 00:16 34.44042 -119.55828 29439 ft 344 kts 310°
2026-04-22 00:16 34.45935 -119.57622 29875 ft 343 kts 310°
2026-04-22 00:16 34.47788 -119.59399 30034 ft 347 kts 310°
2026-04-22 00:17 34.51553 -119.62986 30064 ft 340 kts 310°
2026-04-22 00:17 34.55287 -119.66515 30070 ft 338 kts 310°
2026-04-22 00:18 34.58998 -119.70031 30067 ft 342 kts 310°
2026-04-22 00:18 34.62838 -119.73692 30065 ft 362 kts 310°
2026-04-22 00:19 34.66925 -119.77570 30055 ft 382 kts 311°
2026-04-22 00:19 34.71222 -119.81645 30051 ft 401 kts 312°
2026-04-22 00:20 34.75708 -119.85912 30049 ft 419 kts 312°
2026-04-22 00:20 34.80363 -119.90320 30040 ft 423 kts 312°
2026-04-22 00:21 34.84970 -119.94669 30036 ft 421 kts 312°
2026-04-22 00:21 34.89575 -119.99029 30030 ft 417 kts 312°
2026-04-22 00:21 34.91853 -120.01195 29655 ft 415 kts 311°
2026-04-22 00:22 34.94152 -120.03396 28565 ft 422 kts 312°
2026-04-22 00:22 34.96430 -120.05580 28120 ft 415 kts 312°
2026-04-22 00:22 34.98690 -120.07740 28039 ft 408 kts 312°
2026-04-22 00:23 35.03213 -120.12103 28028 ft 421 kts 312°
2026-04-22 00:23 35.07535 -120.16263 28032 ft 425 kts 312°
2026-04-22 00:24 35.12178 -120.20698 28034 ft 422 kts 312°
2026-04-22 00:24 35.16813 -120.25134 28046 ft 422 kts 313°
2026-04-22 00:25 35.21470 -120.29499 28037 ft 424 kts 313°
2026-04-22 00:25 35.26221 -120.33800 28048 ft 423 kts 313°
2026-04-22 00:26 35.30939 -120.38088 28039 ft 422 kts 314°
2026-04-22 00:26 35.35611 -120.42358 28044 ft 418 kts 313°
2026-04-22 00:27 35.40272 -120.46658 28039 ft 419 kts 313°
2026-04-22 00:27 35.44924 -120.50932 28037 ft 417 kts 313°
2026-04-22 00:28 35.49581 -120.55222 28028 ft 417 kts 313°
2026-04-22 00:28 35.54216 -120.59458 28040 ft 417 kts 314°
2026-04-22 00:29 35.58958 -120.63584 28043 ft 415 kts 315°
2026-04-22 00:29 35.63739 -120.67654 28049 ft 416 kts 314°
2026-04-22 00:30 35.68464 -120.71689 28045 ft 415 kts 314°
2026-04-22 00:30 35.73185 -120.75754 28040 ft 414 kts 314°
2026-04-22 00:31 35.77889 -120.79816 28025 ft 413 kts 314°
2026-04-22 00:31 35.82579 -120.83886 28021 ft 411 kts 314°
2026-04-22 00:31 35.84904 -120.85895 27956 ft 408 kts 314°
2026-04-22 00:32 35.87213 -120.87887 27844 ft 394 kts 314°
2026-04-22 00:32 35.89423 -120.89789 27607 ft 382 kts 313°
2026-04-22 00:32 35.91567 -120.91637 27311 ft 371 kts 313°
2026-04-22 00:32 35.93622 -120.93414 27081 ft 360 kts 313°
2026-04-22 00:33 35.95682 -120.95210 26568 ft 356 kts 313°
2026-04-22 00:33 35.97691 -120.96970 25945 ft 356 kts 313°
2026-04-22 00:33 35.99677 -120.98727 25172 ft 358 kts 313°
2026-04-22 00:33 36.01724 -121.00539 24117 ft 367 kts 313°
2026-04-22 00:34 36.03804 -121.02388 23258 ft 371 kts 313°
2026-04-22 00:34 36.05906 -121.04243 22292 ft 379 kts 314°
2026-04-22 00:34 36.08070 -121.06146 21121 ft 391 kts 315°
2026-04-22 00:34 36.10291 -121.08088 20604 ft 384 kts 316°
2026-04-22 00:35 36.12482 -121.09990 19717 ft 387 kts 316°
2026-04-22 00:35 36.14677 -121.11897 19106 ft 384 kts 316°
2026-04-22 00:35 36.16834 -121.13779 18310 ft 386 kts 317°
2026-04-22 00:35 36.19043 -121.15714 17662 ft 381 kts 317°
2026-04-22 00:36 36.21212 -121.17615 16693 ft 387 kts 318°
2026-04-22 00:36 36.23391 -121.19536 16078 ft 382 kts 318°
2026-04-22 00:36 36.25559 -121.21446 15346 ft 381 kts 319°
2026-04-22 00:36 36.27671 -121.23300 15050 ft 369 kts 319°
2026-04-22 00:37 36.29724 -121.25098 14826 ft 356 kts 319°
2026-04-22 00:37 36.31701 -121.26830 14636 ft 342 kts 318°
2026-04-22 00:37 36.33614 -121.28517 14554 ft 327 kts 319°
2026-04-22 00:37 36.35421 -121.30118 14425 ft 314 kts 318°
2026-04-22 00:38 36.37178 -121.31681 14080 ft 303 kts 318°
2026-04-22 00:38 36.38844 -121.33164 13792 ft 290 kts 319°
2026-04-22 00:38 36.40459 -121.34598 13561 ft 277 kts 318°
2026-04-22 00:38 36.41970 -121.35986 13285 ft 263 kts 313°
2026-04-22 00:39 36.43254 -121.37502 13068 ft 248 kts 308°
2026-04-22 00:39 36.44417 -121.39008 12852 ft 237 kts 307°
2026-04-22 00:39 36.45538 -121.40482 12550 ft 232 kts 307°
2026-04-22 00:39 36.46639 -121.41922 12166 ft 229 kts 307°
2026-04-22 00:40 36.47726 -121.43329 11895 ft 221 kts 307°
2026-04-22 00:40 36.48800 -121.44719 11418 ft 226 kts 308°
2026-04-22 00:40 36.49886 -121.46124 11041 ft 225 kts 307°
2026-04-22 00:40 36.50969 -121.47526 10660 ft 225 kts 308°
2026-04-22 00:41 36.52053 -121.48931 10318 ft 223 kts 308°
2026-04-22 00:41 36.53122 -121.50314 9952 ft 223 kts 308°
2026-04-22 00:41 36.54235 -121.51685 9479 ft 229 kts 312°
2026-04-22 00:41 36.55416 -121.53021 8996 ft 233 kts 313°
2026-04-22 00:42 36.56618 -121.54363 8587 ft 233 kts 313°
2026-04-22 00:42 36.57834 -121.55733 8210 ft 232 kts 313°
2026-04-22 00:42 36.59020 -121.57075 7841 ft 231 kts 313°
2026-04-22 00:42 36.60372 -121.58147 7438 ft 239 kts 338°
2026-04-22 00:43 36.62048 -121.58270 7076 ft 246 kts
2026-04-22 00:43 36.63578 -121.57286 6669 ft 251 kts 43°
2026-04-22 00:43 36.64491 -121.55471 6277 ft 249 kts 76°
2026-04-22 00:43 36.64532 -121.53391 5989 ft 239 kts 107°
2026-04-22 00:44 36.64040 -121.51427 5967 ft 236 kts 113°
2026-04-22 00:44 36.63488 -121.49470 5966 ft 241 kts 113°
2026-04-22 00:44 36.62939 -121.47513 5965 ft 242 kts 112°
2026-04-22 00:44 36.62392 -121.45554 5969 ft 238 kts 113°
2026-04-22 00:45 36.61847 -121.43586 5969 ft 241 kts 112°
2026-04-22 00:45 36.61297 -121.41594 5956 ft 240 kts 112°
2026-04-22 00:45 36.60753 -121.39642 5957 ft 239 kts 113°
2026-04-22 00:45 36.60206 -121.37678 5964 ft 240 kts 113°
2026-04-22 00:46 36.59670 -121.35725 5961 ft 239 kts 113°
2026-04-22 00:46 36.59138 -121.33783 5950 ft 238 kts 113°
2026-04-22 00:46 36.58527 -121.31840 5946 ft 237 kts 122°
2026-04-22 00:46 36.57482 -121.30371 5941 ft 225 kts 153°
2026-04-22 00:47 36.56017 -121.29853 5944 ft 216 kts 185°
2026-04-22 00:47 36.54522 -121.30059 5940 ft 214 kts 193°
2026-04-22 00:47 36.53045 -121.30356 5933 ft 213 kts 193°
2026-04-22 00:47 36.51572 -121.30645 5935 ft 214 kts 192°
2026-04-22 00:48 36.50104 -121.30932 5942 ft 215 kts 193°
2026-04-22 00:48 36.48607 -121.31227 5941 ft 215 kts 193°
2026-04-22 00:48 36.47136 -121.31615 5935 ft 213 kts 205°
2026-04-22 00:48 36.46009 -121.32716 5937 ft 209 kts 237°
2026-04-22 00:49 36.45557 -121.34390 5945 ft 204 kts 261°
2026-04-22 00:49 36.45409 -121.36127 5942 ft 200 kts 263°
2026-04-22 00:49 36.45278 -121.37849 5946 ft 198 kts 263°
2026-04-22 00:49 36.45143 -121.39565 5947 ft 199 kts 262°
2026-04-22 00:50 36.45011 -121.41273 5944 ft 200 kts 263°
2026-04-22 00:50 36.44882 -121.42964 5814 ft 194 kts 263°
2026-04-22 00:50 36.44750 -121.44658 5374 ft 199 kts 263°
2026-04-22 00:50 36.44787 -121.46365 5021 ft 201 kts 287°
2026-04-22 00:51 36.45683 -121.47650 4945 ft 204 kts 327°
2026-04-22 00:51 36.47020 -121.48402 4958 ft 215 kts 332°
2026-04-22 00:51 36.48395 -121.49156 4957 ft 214 kts 329°
2026-04-22 00:51 36.49636 -121.50129 4960 ft 209 kts 318°
2026-04-22 00:52 36.50673 -121.51366 4963 ft 205 kts 306°
2026-04-22 00:52 36.51508 -121.52807 4965 ft 204 kts 299°
2026-04-22 00:52 36.52047 -121.54401 4958 ft 200 kts 275°
2026-04-22 00:52 36.52070 -121.56125 4962 ft 199 kts 273°
2026-04-22 00:53 36.52449 -121.57776 4736 ft 198 kts 291°
2026-04-22 00:53 36.53026 -121.59303 4289 ft 196 kts 293°
2026-04-22 00:53 36.53585 -121.60764 4009 ft 176 kts 292°
2026-04-22 00:53 36.54092 -121.62056 4029 ft 157 kts 292°
2026-04-22 00:54 36.54576 -121.63308 4081 ft 167 kts 292°
2026-04-22 00:54 36.55082 -121.64638 4067 ft 168 kts 292°
2026-04-22 00:54 36.55556 -121.65884 4038 ft 148 kts 292°
2026-04-22 00:54 36.55977 -121.66965 4055 ft 137 kts 291°
2026-04-22 00:55 36.56398 -121.68037 4078 ft 139 kts 292°
2026-04-22 00:55 36.56820 -121.69122 4058 ft 139 kts 291°
2026-04-22 00:55 36.57656 -121.71274 4069 ft 138 kts 291°
2026-04-22 00:56 36.58043 -121.72372 4064 ft 136 kts 281°
2026-04-22 00:56 36.58203 -121.73522 4099 ft 136 kts 276°
2026-04-22 00:56 36.58100 -121.74743 3775 ft 146 kts 259°
2026-04-22 00:56 36.57958 -121.75925 3534 ft 139 kts 255°
2026-04-22 00:57 36.57814 -121.77123 3087 ft 141 kts 253°
2026-04-22 00:57 36.57583 -121.78288 2678 ft 139 kts 269°
2026-04-22 00:57 36.57639 -121.79498 2213 ft 143 kts 275°
2026-04-22 00:57 36.57804 -121.80705 1813 ft 142 kts 281°
2026-04-22 00:58 36.58126 -121.81913 1049 ft 160 kts 275°
2026-04-22 00:58 36.58353 -121.83227 545 ft 154 kts 284°
2026-04-22 00:58 36.58763 -121.84415 228 ft 140 kts 280°